Dewpoint
54 53 54 53 55 55 54 53 53 54 53 53 53 53 53 53 53 53 54 54 54 54 53 54 54 56 52 42 36 23 69 71 63 54 44 36 28 24 26 28 30 39 39 46 45 44 42
55 55 54 54 54 54 54 53 53 54 54 54 54 54 54 54 54 54 55 54 54 54 53 53 54 55 49 15 15 26 32 53 48 44 41 35 30 27 28 29 30 33 33 34 37 41 41
55 54 53 54 55 55 54 54 53 53 53 53 54 54 54 54 54 54 54 53 54 53 53 54 54 54 49 17 20 26 34 47 48 42 35 36 32 29 30 29 31 32 29 28 26 33 41
56 55 55 55 55 54 55 54 53 54 54 54 54 54 54 53 54 53 53 53 53 53 54 54 55 54 43 36 32 26 24 31 35 40 37 34 33 31 30 30 26 25 26 23 25 42 44
56 56 56 55 55 55 55 55 54 54 54 53 53 53 53 53 53 52 52 52 53 54 54 57 54 51 40 48 40 32 25 26 26 34 33 33 30 28 27 23 21 23 21 21 22 36 43
56 56 56 56 55 55 55 55 54 54 54 54 53 53 53 53 52 51 51 51 51 54 55 56 53 46 41 32 40 28 24 23 26 30 31 32 28 25 24 20 19 22 20 19 20 28 42
57 57 56 55 56 55 55 55 55 55 54 53 53 53 53 52 51 50 48 45 29 31 48 42 43 42 35 34 37 29 25 26 25 26 23 23 25 25 23 22 21 22 21 20 21 25 42
56 56 56 56 56 55 55 55 55 55 54 54 53 53 53 52 51 50 48 39 37 26 21 21 30 33 36 37 36 38 29 26 23 20 19 20 20 24 24 22 18 17 18 19 21 23 41
55 56 56 56 56 55 55 55 55 54 54 53 53 53 52 51 50 43 35 30 33 32 17 16 17 17 18 30 33 34 30 24 23 18 18 17 20 23 24 23 19 16 15 16 19 23 46
55 55 55 55 55 55 55 54 54 53 53 53 53 53 52 50 39 42 38 35 35 33 16 16 14 13 15 17 19 26 33 23 20 19 17 19 22 21 20 22 21 17 17 17 19 23 30
55 55 54 54 54 54 54 53 53 53 53 53 53 52 51 50 44 42 36 36 36 23 16 22 16 16 15 13 16 20 26 25 23 21 21 22 22 21 21 22 22 18 20 21 21 21 22
54 54 53 54 54 53 53 53 53 53 53 53 53 52 51 45 43 42 40 38 30 15 15 18 16 11 12 12 14 21 26 29 26 25 23 21 22 21 20 21 22 19 14 17 22 21 21
54 53 53 53 53 53 53 53 53 53 53 52 52 50 49 44 40 38 41 33 14 15 19 20 18 18 11 10 10 14 26 28 23 19 22 24 21 18 21 19 19 15 9 10 12 15 18
52 53 53 53 53 53 53 53 53 52 52 51 50 49 46 41 45 44 38 23 16 17 16 21 22 20 15 12 9 9 11 27 26 16 17 21 20 22 19 16 16 14 8 9 9 15 18
53 53 53 53 53 53 53 52 52 52 51 50 49 42 40 39 38 40 33 26 18 19 23 24 23 19 17 19 21 14 9 9 23 19 14 16 18 22 22 20 16 15 7 8 9 23 17
52 52 52 53 53 53 53 52 52 52 51 49 45 41 40 41 38 37 31 29 24 26 26 25 23 22 23 24 23 23 18 14 9 12 15 15 15 17 16 22 22 15 13 11 6 5 6
51 51 51 52 51 52 52 52 52 51 51 49 42 35 35 32 30 32 28 27 26 27 27 25 24 23 23 24 24 23 23 18 18 16 14 12 14 14 19 16 19 19 13 9 6 6 5
51 51 51 51 51 51 52 51 51 51 50 45 38 32 34 33 26 26 28 27 30 26 26 26 24 21 19 24 20 21 23 23 24 23 20 15 11 11 11 18 20 19 16 11 9 8 10
51 51 51 51 51 51 51 51 51 50 49 42 36 34 35 31 24 24 27 27 29 29 29 29 27 26 32 28 27 24 28 28 34 32 26 33 15 12 13 14 16 17 17 14 11 11 9
50 50 50 50 51 51 51 50 50 50 49 42 36 31 29 30 31 30 28 30 30 31 27 28 29 33 33 32 31 32 33 33 34 33 44 34 28 17 14 15 15 15 15 15 10 10 10
49 49 49 49 50 51 51 50 50 50 49 44 38 32 32 29 30 32 29 30 28 26 28 30 30 32 33 32 34 32 35 35 33 37 33 33 26 21 20 18 15 17 18 15 13 11 10
50 50 50 50 50 50 51 50 50 50 49 44 38 36 35 34 33 31 29 27 32 34 32 30 30 31 30 31 31 30 33 31 32 33 32 33 28 27 26 24 15 14 17 18 16 14 12
50 50 50 50 50 50 51 50 50 50 47 42 44 44 40 34 32 27 26 26 26 30 35 33 29 31 28 26 32 32 31 32 32 32 30 32 29 26 25 23 15 15 16 19 19 19 15
51 50 50 50 50 49 50 50 50 50 48 45 44 43 36 32 30 28 28 29 28 31 30 28 29 31 32 37 36 32 31 30 29 31 32 31 30 27 26 26 15 16 17 17 18 22 22
50 50 50 50 50 50 49 49 49 50 50 47 46 43 39 32 30 31 29 30 32 30 28 30 31 32 38 37 32 30 31 30 29 30 31 32 30 28 25 26 23 26 26 20 19 19 29
49 50 50 49 49 49 49 49 48 50 50 47 45 45 43 36 30 32 33 32 30 29 31 31 32 37 37 37 35 27 27 32 30 29 30 27 28 28 27 25 22 23 26 31 33 28 48
50 50 50 50 49 49 49 48 48 48 49 45 43 45 42 36 37 35 32 32 33 31 31 32 33 34 37 34 35 29 29 31 31 29 31 39 36 30 28 29 25 28 29 39 29 33 49
51 50 50 50 49 49 48 48 48 48 47 45 43 46 43 39 36 35 36 35 34 33 32 32 35 35 33 34 34 31 31 29 32 37 39 39 40 39 35 32 25 44 44 30 39 53 50
51 51 50 50 49 48 48 48 48 48 48 47 43 45 46 42 38 40 40 39 38 36 34 34 35 37 38 34 35 37 34 35 35 34 42 39 43 42 41 44 46 53 54 57 58 58 59
Lifted_Index
16 16 16 16 16 16 16 16 16 17 17 17 18 18 18 19 19 19 19 19 19 19 19 19 18 17 15 12 12 12 11 8 7 8 9 9 7 6 6 4 3 3 2 1 -1 -1 -1
16 16 17 17 17 17 17 16 16 16 16 17 17 17 18 18 18 19 19 19 19 19 19 19 18 16 14 12 12 13 12 10 9 10 10 10 8 6 5 4 3 3 3 1 -0 -1 -1
17 17 17 17 17 17 17 17 17 17 17 16 17 17 17 17 18 18 18 19 19 19 19 18 17 15 13 11 12 13 12 12 11 11 11 10 9 7 6 5 4 4 3 2 1 -1 -1
17 17 17 17 17 18 18 18 18 18 18 18 18 17 17 16 17 17 18 18 18 18 18 18 16 14 11 11 12 13 12 12 11 11 11 10 9 8 6 5 4 3 3 2 1 -1 -1
16 16 17 17 17 17 18 18 18 18 18 19 19 18 18 17 16 16 17 17 18 17 16 16 15 13 11 11 11 12 12 12 11 11 10 10 10 9 7 5 4 3 2 2 1 -1 -1
16 16 16 17 17 17 17 17 18 18 18 19 19 19 19 18 17 16 16 17 16 15 14 14 13 11 11 10 10 11 12 12 11 10 10 10 9 8 7 6 4 2 2 2 1 -0 -1
16 16 16 17 17 17 17 17 18 18 19 19 19 19 19 19 18 17 16 16 16 15 13 12 12 11 11 11 11 11 11 12 11 10 9 9 9 8 8 7 5 3 2 1 1 1 -0
16 16 17 17 17 17 17 17 18 18 19 19 19 19 20 19 18 17 16 15 16 15 13 11 11 11 11 11 11 10 11 11 10 9 9 8 8 8 8 7 6 3 2 1 1 1 1
17 17 17 17 17 17 18 18 18 18 19 19 19 19 20 19 18 17 16 16 17 16 12 9 9 9 10 11 10 10 10 11 10 8 8 8 8 8 8 7 6 4 2 1 1 1 1
17 17 17 17 17 18 18 18 18 19 19 19 19 19 20 19 17 16 16 16 17 15 10 7 8 9 9 9 9 9 10 10 9 8 8 7 8 8 8 7 6 5 3 2 1 1 1
17 17 18 18 18 18 18 18 19 19 19 19 19 20 20 20 18 16 16 16 16 12 7 6 8 9 9 8 8 8 9 10 9 9 9 8 8 8 8 8 7 6 4 2 2 1 1
17 17 18 18 18 18 18 18 19 19 19 19 19 20 20 20 19 18 17 16 13 8 5 6 8 8 7 7 7 8 9 9 9 8 8 8 8 9 9 8 8 6 4 3 2 1 1
17 17 17 17 17 17 18 18 18 18 19 19 20 20 21 21 20 19 18 14 9 6 6 7 8 8 7 6 7 7 8 8 8 7 7 7 8 9 9 9 8 7 5 2 1 1 1
16 16 17 17 17 17 17 17 18 18 19 19 20 21 21 20 20 19 17 12 7 7 8 8 8 8 7 7 7 7 7 7 7 7 5 5 5 7 8 8 8 7 6 3 1 1 1
16 16 17 17 17 17 18 18 18 19 19 20 21 21 20 20 19 18 16 11 9 9 9 8 7 7 7 7 7 7 7 7 8 7 6 4 4 6 7 7 7 6 6 4 3 2 1
17 17 17 17 17 18 18 18 19 19 20 21 21 21 20 19 19 18 16 13 12 12 11 9 8 7 7 7 8 8 8 8 8 7 6 5 5 5 6 6 6 6 6 5 4 2 1
17 17 17 17 17 17 17 18 19 19 20 21 22 21 20 19 18 17 16 15 14 13 12 11 10 9 8 7 8 8 8 9 9 8 7 6 5 4 5 6 6 6 5 5 4 3 2
16 15 15 15 15 15 15 16 17 18 19 20 21 20 19 17 16 15 15 15 15 14 12 12 12 11 10 9 8 8 9 10 10 9 8 7 6 5 5 5 5 5 5 5 5 4 4
14 14 13 13 13 12 12 12 13 14 16 17 17 17 16 14 13 13 13 13 13 13 12 12 12 12 12 10 8 9 10 10 10 10 10 9 8 6 5 4 4 5 5 5 4 4 4
13 12 12 10 9 8 7 7 7 8 10 11 11 11 10 10 9 9 9 10 10 10 11 11 11 11 12 11 9 9 10 10 10 9 10 9 9 8 6 5 4 4 5 5 4 4 4
11 10 9 7 6 4 4 3 3 4 4 5 5 5 4 4 4 5 5 5 6 6 7 8 9 9 10 10 10 9 9 9 9 8 8 8 8 8 8 7 5 4 4 4 4 4 4
7 7 5 4 3 3 2 2 2 2 2 2 2 1 1 1 2 2 2 2 2 3 4 4 5 6 8 9 9 9 9 9 9 8 7 7 7 7 8 7 5 3 3 4 4 4 4
5 4 4 3 3 2 1 1 1 1 1 1 1 1 1 1 1 1 1 1 1 1 1 2 2 4 5 6 7 8 9 9 9 8 7 6 6 5 5 5 4 3 3 3 3 3 3
4 4 3 3 2 2 1 1 0 0 1 1 1 1 1 1 1 1 1 1 1 1 1 1 1 2 2 3 4 6 7 8 9 8 7 6 5 4 3 2 2 3 3 2 2 2 2
4 3 3 2 2 1 1 1 0 0 0 1 1 1 1 1 1 1 1 1 1 1 1 1 1 1 1 1 2 3 5 5 6 7 6 5 5 4 2 1 1 2 3 2 1 1 0
4 3 3 2 2 2 1 1 1 0 0 1 1 1 1 1 1 1 1 1 1 1 1 1 1 1 1 0 0 1 2 3 3 4 4 4 3 3 2 1 1 1 2 1 1 0 -0
4 3 3 3 2 2 2 1 1 1 1 1 1 1 1 1 1 2 2 2 2 2 2 2 1 1 1 0 -0 0 1 1 1 1 2 2 2 2 2 1 1 1 1 0 -0 -1 -1
4 3 3 3 3 2 2 2 2 1 1 1 1 2 2 1 1 1 2 2 2 2 2 2 1 1 1 1 0 0 0 0 -0 0 1 1 1 1 1 1 -0 -1 -2 -2 -2 -2 -2
4 3 3 3 3 3 2 2 2 2 2 2 2 2 2 1 1 1 1 2 2 2 2 2 2 1 1 1 1 1 0 -0 -0 -0 0 0 1 1 1 -0 -1 -3 -4 -4 -4 -3 -3